Regional Weather Roundup
Issued by NWS

Home | Current Version | Previous Version | Text Only | Print | Product List | Glossary On
Versions: 1 2 3 4 5 6 7 8 9 10 11 12 13 14 15 16 17 18 19 20 21 22 23 24 25 26 27 28 29 30 31 32 33 34 35 36 37 38 39 40 41 42 43 44 45 46 47 48 49 50
186
ASUS44 KOUN 181810
RWROK

WEATHER ROUNDUP FOR OKLAHOMA
NATIONAL WEATHER SERVICE NORMAN OK
1200 PM CST WED JAN 18 2017

NOTE: "FAIR" INDICATES FEW OR NO CLOUDS BELOW 12,000 FEET WITH NO
      SIGNIFICANT WEATHER AND/OR OBSTRUCTIONS TO VISIBILITY.

OKZ001>007-009>012-014-015-017-181900-
NORTHWEST OKLAHOMA AND THE PANHANDLE

CITY           SKY/WX    TMP DP  RH WIND       PRES   REMARKS
GAGE           CLOUDY    50  42  74 S12       30.05
6HR MIN TEMP:  38; 6HR MAX TEMP:  50; 6HR PCP: TRACE;

GUYMON         MOSUNNY   49  40  71 S10       29.98F
ENID/WOODRING  CLOUDY    52  39  62 SE12      30.10F
$$

OKZ016-021>023-033>039-044-045-181900-
SOUTHWEST OKLAHOMA

CITY           SKY/WX    TMP DP  RH WIND       PRES   REMARKS
LAWTON/REGL    CLOUDY    48  44  86 S3        30.12F
6HR MIN TEMP:  37; 6HR MAX TEMP:  48;

LAWTON/FT SILL CLOUDY    48  46  92 S3        30.10F
FREDERICK      CLOUDY    46  45  96 SE6       30.10F FOG
CLINTON        CLOUDY    47  41  80 S10       30.10F
HOBART         CLOUDY    47  44  90 S9        30.12F FOG
ALTUS AFB      CLOUDY    46  44  92 SE7       30.11F FOG
$$

OKZ018>020-024>031-181900-
CENTRAL OKLAHOMA

CITY           SKY/WX    TMP DP  RH WIND       PRES   REMARKS
OKLAHOMA CITY  CLOUDY    51  40  65 S5        30.10F
6HR MIN TEMP:  38; 6HR MAX TEMP:  51;

OKC/WILEY POST CLOUDY    51  40  65 S6        30.10F
OKC/TINKER AFB CLOUDY    52  41  65 CALM      30.08F
STILLWATER     CLOUDY    51  38  60 S7        30.11F
GUTHRIE        CLOUDY    52  40  63 SE7       30.11F
$$

OKZ008-013-054>072-181900-
NORTHEAST OKLAHOMA

CITY           SKY/WX    TMP DP  RH WIND       PRES   REMARKS
TULSA          CLOUDY    51  39  63 E6        30.12F
6HR MIN TEMP:  34; 6HR MAX TEMP:  51;

TULSA/JONES    PTSUNNY   50  38  63 SE5       30.12F
PONCA CITY     CLOUDY    49  39  68 SE9       30.12
BARTLESVILLE   CLOUDY    45  37  73 CALM      30.16F
MUSKOGEE       CLOUDY    46  43  89 S5        30.15F
$$

OKZ032-040>043-046>053-073>077-181900-
SOUTH CENTRAL/SOUTHEAST OKLAHOMA

CITY           SKY/WX    TMP DP  RH WIND       PRES   REMARKS
ARDMORE/DWNTWN CLOUDY    48  43  81 CALM      30.11F
MCALESTER      CLOUDY    47  43  86 VRB6      30.11F
$$





USA.gov is the U.S. government's official web portal to all federal, state and local government web resources and services.